Location: Erdweis
(48.5167°N, 15.3500°E)
Time: 14:13:54
(UTC+00:00)

USA 234 - Pass Details

Date: 17 January 2021
Orbit: 1100 x 1107 km, 123.0° (Epoch: 01 March)

Event Time Altitude Azimuth Distance (km) Brightness Sun altitude
Exits shadow 20:53:45 13° 283° (WNW) 2,720 5.7 -51.1°
Drops below altitude 10° 20:54:36 10° 289° (WNW) 2,964 6.0 -51.2°
Sets 20:57:34 0° 301° (WNW) 3,926 6.8 -51.7°
